Location: Bruch
(44.2051°N, 0.4120°E)
Time: 18:31:26
(UTC+00:00)

Cosmos 372 Rocket - Visible Passes

Search period start: 16 April 2021 00:00
Search period end: 26 April 2021 00:00
Orbit: 739 x 767 km, 74.1° (Epoch: 15 April)

Date Brightness Start Highest point End Pass type
(mag) Time Alt. Az. Time Alt. Az. Time Alt. Az.
16 Apr 4.9 03:28:36 10° S 03:33:31 46° ESE 03:38:24 10° NNE visible
17 Apr 5.8 02:48:17 11° SSE 02:52:11 25° E 02:56:20 10° NE visible
17 Apr 4.5 04:28:48 10° SW 04:33:40 42° WNW 04:38:32 10° N visible
18 Apr 6.5 02:08:35 10° ESE 02:11:00 13° E 02:13:24 10° ENE visible
18 Apr 3.9 03:47:54 16° SSW 03:52:01 77° WNW 03:57:10 10° NNE visible
19 Apr 4.4 03:07:28 23° S 03:10:31 58° ESE 03:15:33 10° NNE visible
20 Apr 5.4 02:26:59 23° SE 02:29:08 31° E 02:33:37 10° NE visible
20 Apr 4.8 04:06:56 14° WSW 04:10:47 34° WNW 04:15:27 10° N visible
21 Apr 6.1 01:46:27 15° ESE 01:47:54 17° E 01:51:07 10° ENE visible
21 Apr 4.0 03:26:24 27° SW 03:29:05 62° WNW 03:34:10 10° NNE visible
22 Apr 4.0 02:45:48 42° S 02:47:32 73° ESE 02:52:38 10° NNE visible
22 Apr 5.7 04:26:31 10° W 04:29:51 17° NW 04:33:10 10° NNW visible
23 Apr 4.9 02:05:10 35° SE 02:06:06 39° ESE 02:10:50 10° NE visible
23 Apr 5.1 03:45:07 18° WSW 03:47:55 28° WNW 03:52:20 10° N visible
24 Apr 5.8 01:24:30 21° ESE 01:24:50 21° E 01:28:36 10° NE visible
24 Apr 4.3 03:04:27 35° WSW 03:06:10 50° WNW 03:11:09 10° N visible
25 Apr 6.5 00:43:47 11° E 00:43:47 11° E 00:44:54 10° ENE visible
25 Apr 3.8 02:23:44 64° SSW 02:24:33 90° S 02:29:42 10° NNE visible
25 Apr 5.9 04:04:21 10° W 04:07:03 14° NW 04:09:46 10° NNW visible
